Meteo pe oră la Abertura

Astăzi, 29 Iulie, Joi

Timp Temperatura Precipitaţii Vânt Presiune Umiditate
00:00 +26°C° 0 mm 1 m/s 727 mmHg 30%
01:00 +25°C° 0 mm 1 m/s 727 mmHg 33%
02:00 +24°C° 0 mm 1 m/s 726 mmHg 36%
03:00 +24°C° 0 mm 1 m/s 726 mmHg 39%
04:00 +23°C° 0 mm 1 m/s 727 mmHg 41%
05:00 +23°C° 0 mm 1 m/s 727 mmHg 42%
06:00 +20°C° 0 mm 0 m/s 727 mmHg 44%
07:00 +25°C° 0 mm 1 m/s 728 mmHg 39%
08:00 +28°C° 0 mm 2 m/s 728 mmHg 33%
09:00 +31°C° 0 mm 2 m/s 728 mmHg 27%
10:00 +34°C° 0 mm 3 m/s 728 mmHg 25%
11:00 +35°C° 0 mm 3 m/s 728 mmHg 23%
12:00 +37°C° 0 mm 4 m/s 728 mmHg 20%
13:00 +38°C° 0 mm 4 m/s 728 mmHg 19%
14:00 +40°C° 0 mm 5 m/s 727 mmHg 17%
15:00 +40°C° 0 mm 5 m/s 727 mmHg 16%
16:00 +40°C° 0 mm 5 m/s 727 mmHg 15%
17:00 +39°C° 0 mm 5 m/s 726 mmHg 15%
18:00 +38°C° 0 mm 6 m/s 726 mmHg 15%
19:00 +34°C° 0 mm 5 m/s 727 mmHg 18%
20:00 +30°C° 0 mm 4 m/s 727 mmHg 22%
21:00 +27°C° 0 mm 3 m/s 727 mmHg 26%
22:00 +26°C° 0 mm 2 m/s 727 mmHg 32%
23:00 +24°C° 0 mm 2 m/s 727 mmHg 38%

Mâine, 30 Iulie, Vineri

Timp Temperatura Precipitaţii Vânt Presiune Umiditate
00:00 +21°C° 0 mm 2 m/s 727 mmHg 44%
01:00 +21°C° 0 mm 1 m/s 727 mmHg 47%
02:00 +20°C° 0 mm 1 m/s 727 mmHg 50%
03:00 +19°C° 0 mm 1 m/s 727 mmHg 53%
04:00 +18°C° 0 mm 1 m/s 728 mmHg 55%
05:00 +18°C° 0 mm 1 m/s 728 mmHg 57%
06:00 +16°C° 0 mm 1 m/s 728 mmHg 59%
07:00 +20°C° 0 mm 1 m/s 728 mmHg 49%
08:00 +23°C° 0 mm 1 m/s 729 mmHg 40%
09:00 +27°C° 0 mm 2 m/s 729 mmHg 30%
10:00 +29°C° 0 mm 2 m/s 729 mmHg 26%
11:00 +33°C° 0 mm 3 m/s 729 mmHg 22%
12:00 +35°C° 0 mm 3 m/s 728 mmHg 18%
13:00 +36°C° 0 mm 4 m/s 728 mmHg 16%
14:00 +37°C° 0 mm 4 m/s 728 mmHg 14%
15:00 +39°C° 0 mm 5 m/s 727 mmHg 12%
16:00 +39°C° 0 mm 6 m/s 727 mmHg 13%
17:00 +38°C° 0 mm 6 m/s 727 mmHg 14%
18:00 +36°C° 0 mm 7 m/s 727 mmHg 14%
19:00 +33°C° 0 mm 6 m/s 727 mmHg 19%
20:00 +29°C° 0 mm 5 m/s 727 mmHg 24%
21:00 +26°C° 0 mm 5 m/s 728 mmHg 29%
22:00 +23°C° 0 mm 4 m/s 728 mmHg 38%
23:00 +21°C° 0 mm 3 m/s 728 mmHg 47%

Poimâine, 31 Iulie, Sâmbătă

Timp Temperatura Precipitaţii Vânt Presiune Umiditate
00:00 +18°C° 0 mm 3 m/s 728 mmHg 57%
01:00 +17°C° 0 mm 3 m/s 728 mmHg 64%
02:00 +16°C° 0 mm 3 m/s 727 mmHg 72%
03:00 +15°C° 0 mm 2 m/s 727 mmHg 80%
04:00 +15°C° 0 mm 2 m/s 727 mmHg 83%
05:00 +15°C° 0 mm 2 m/s 727 mmHg 85%
06:00 +14°C° 0 mm 2 m/s 728 mmHg 88%
07:00 +17°C° 0 mm 3 m/s 728 mmHg 76%
08:00 +19°C° 0 mm 3 m/s 728 mmHg 65%
09:00 +22°C° 0 mm 4 m/s 728 mmHg 53%
10:00 +25°C° 0 mm 4 m/s 728 mmHg 44%
11:00 +27°C° 0 mm 5 m/s 728 mmHg 35%
12:00 +30°C° 0 mm 5 m/s 728 mmHg 27%
13:00 +32°C° 0 mm 5 m/s 728 mmHg 24%
14:00 +33°C° 0 mm 5 m/s 728 mmHg 22%
15:00 +33°C° 0 mm 6 m/s 727 mmHg 19%
16:00 +33°C° 0 mm 5 m/s 727 mmHg 19%
17:00 +33°C° 0 mm 5 m/s 727 mmHg 18%
18:00 +32°C° 0 mm 5 m/s 727 mmHg 17%
19:00 +29°C° 0 mm 5 m/s 727 mmHg 21%
20:00 +27°C° 0 mm 4 m/s 728 mmHg 24%
21:00 +25°C° 0 mm 4 m/s 728 mmHg 28%
22:00 +22°C° 0 mm 3 m/s 728 mmHg 35%
23:00 +20°C° 0 mm 3 m/s 728 mmHg 42%

1 August, Duminică

Timp Temperatura Precipitaţii Vânt Presiune Umiditate
00:00 +19°C° 0 mm 3 m/s 728 mmHg 49%
01:00 +17°C° 0 mm 2 m/s 728 mmHg 55%
02:00 +16°C° 0 mm 2 m/s 728 mmHg 61%
03:00 +15°C° 0 mm 2 m/s 728 mmHg 67%
04:00 +15°C° 0 mm 1 m/s 728 mmHg 69%
05:00 +14°C° 0 mm 1 m/s 728 mmHg 70%
06:00 +14°C° 0 mm 1 m/s 728 mmHg 71%
07:00 +18°C° 0 mm 1 m/s 729 mmHg 59%
08:00 +20°C° 0 mm 2 m/s 729 mmHg 47%
09:00 +24°C° 0 mm 2 m/s 729 mmHg 36%
10:00 +26°C° 0 mm 3 m/s 729 mmHg 29%
11:00 +28°C° 0 mm 3 m/s 729 mmHg 23%
12:00 +32°C° 0 mm 4 m/s 729 mmHg 16%
13:00 +32°C° 0 mm 4 m/s 728 mmHg 16%
14:00 +33°C° 0 mm 4 m/s 728 mmHg 17%
15:00 +34°C° 0 mm 4 m/s 728 mmHg 17%
16:00 +34°C° 0 mm 4 m/s 727 mmHg 18%
17:00 +33°C° 0 mm 4 m/s 727 mmHg 20%
18:00 +33°C° 0 mm 4 m/s 727 mmHg 21%
19:00 +30°C° 0 mm 4 m/s 727 mmHg 27%
20:00 +28°C° 0 mm 4 m/s 727 mmHg 33%
21:00 +25°C° 0 mm 3 m/s 727 mmHg 38%
22:00 +24°C° 0 mm 3 m/s 728 mmHg 46%
23:00 +22°C° 0 mm 3 m/s 728 mmHg 55%

2 August, Luni

Timp Temperatura Precipitaţii Vânt Presiune Umiditate
00:00 +20°C° 0 mm 2 m/s 728 mmHg 63%
01:00 +19°C° 0 mm 2 m/s 727 mmHg 69%
02:00 +18°C° 0 mm 2 m/s 727 mmHg 75%
03:00 +17°C° 0 mm 2 m/s 727 mmHg 81%
04:00 +18°C° 0 mm 1 m/s 727 mmHg 83%
05:00 +18°C° 0 mm 1 m/s 727 mmHg 85%
06:00 +18°C° 0 mm 1 m/s 727 mmHg 87%
07:00 +20°C° 0 mm 1 m/s 728 mmHg 76%
08:00 +23°C° 0 mm 2 m/s 728 mmHg 64%
09:00 +25°C° 0 mm 2 m/s 728 mmHg 53%
10:00 +27°C° 0 mm 2 m/s 728 mmHg 46%
11:00 +29°C° 0 mm 3 m/s 728 mmHg 38%
12:00 +31°C° 0 mm 3 m/s 728 mmHg 31%
13:00 +33°C° 0 mm 3 m/s 727 mmHg 28%
14:00 +34°C° 0 mm 3 m/s 727 mmHg 25%
15:00 +35°C° 0 mm 3 m/s 727 mmHg 22%
16:00 +35°C° 0 mm 3 m/s 726 mmHg 22%
17:00 +35°C° 0 mm 3 m/s 726 mmHg 21%
18:00 +34°C° 0 mm 3 m/s 726 mmHg 21%
19:00 +31°C° 0 mm 2 m/s 726 mmHg 25%
20:00 +29°C° 0 mm 2 m/s 726 mmHg 29%
21:00 +26°C° 0 mm 1 m/s 727 mmHg 34%
22:00 +25°C° 0 mm 1 m/s 727 mmHg 39%
23:00 +24°C° 0 mm 1 m/s 727 mmHg 44%

3 August, Marţi

Timp Temperatura Precipitaţii Vânt Presiune Umiditate
00:00 +22°C° 0 mm 1 m/s 727 mmHg 50%
01:00 +21°C° 0 mm 1 m/s 727 mmHg 53%
02:00 +21°C° 0 mm 1 m/s 727 mmHg 57%
03:00 +20°C° 0 mm 1 m/s 727 mmHg 61%
04:00 +20°C° 0 mm 1 m/s 727 mmHg 61%
05:00 +19°C° 0 mm 1 m/s 728 mmHg 62%
06:00 +17°C° 0 mm 0 m/s 728 mmHg 62%
07:00 +22°C° 0 mm 1 m/s 728 mmHg 52%
08:00 +25°C° 0 mm 1 m/s 729 mmHg 42%
09:00 +28°C° 0 mm 1 m/s 729 mmHg 32%
10:00 +30°C° 0 mm 2 m/s 729 mmHg 28%
11:00 +34°C° 0 mm 2 m/s 729 mmHg 24%
12:00 +36°C° 0 mm 3 m/s 728 mmHg 20%
13:00 +37°C° 0 mm 3 m/s 728 mmHg 18%
14:00 +37°C° 0 mm 4 m/s 728 mmHg 17%
15:00 +38°C° 0 mm 4 m/s 727 mmHg 15%
16:00 +38°C° 0 mm 4 m/s 727 mmHg 15%
17:00 +38°C° 0 mm 4 m/s 727 mmHg 16%
18:00 +37°C° 0 mm 4 m/s 727 mmHg 16%
19:00 +35°C° 0 mm 4 m/s 727 mmHg 21%
20:00 +31°C° 0 mm 3 m/s 728 mmHg 26%
21:00 +28°C° 0 mm 3 m/s 728 mmHg 31%
22:00 +27°C° 0 mm 3 m/s 728 mmHg 36%
23:00 +25°C° 0 mm 2 m/s 728 mmHg 41%
Arată mai mult

Formular de consimțământ

Meteoprog și furnizorii noștri de servicii pot stoca și accesa date personale, precum cookies, identificatori de dispozitiv sau alte tehnologii similare pe dispozitivul dumneavoastră și procesa astfel de date pentru a personaliza conținutul și reclamele, dar și pentru a oferi caracteristici de social media și pentru a analiza traficul.

  • Stocarea și/sau accesarea informațiilor pe dispozitivul dumneavoastră

    Cookies, identificatori de dispozitiv sau alte informații pot fi stocate sau accesate pe dispozitiv în scopurile indicate mai sus.

  • Reclame și conținut personalizat, evaluarea reclamelor și a conținutului, informații despre audiențe și dezvoltarea produselor

    Reclamele și conținutul pot fi personalizate pe baza unui profil. Pot fi adăugate date suplimentare pentru a personaliza mai bine reclamele și conținutul. Performanța reclamelor și conținutului poate fi măsurată. Pot fi obținute informații despre utilizatorii care au văzut reclamele și conținutul. Aceste date pot fi utilizate pentru a dezvolta sau îmbunătăți experiența utilizatorilor, sistemele și software-ul.

Dând clic pe ‘Sunt de acord’, permiteți utilizarea cookie-urilor menționate, a identificatorilor de dispozitiv, balizelor web sau altor tehnologii similare. Setările pot fi modificate din browser-ul dispozitivului dumneavoastră.

În anumite scopuri, interesele legitime pot prima asupra consimțământului. Puteți citi mai multe informații în acest sens în Politica privind Confidențialitatea Datelor și Cookie.